This demonstration page uses our WeatherBlox Daily Observations layout. Learn more.

Left ArrowRight Arrow

Hourly Observations for August 25, 2022

Temp ( °F °C ) Dew Point ( °F °C ) Humidity (%) Winds ( mph kmh ) Pressure ( in mb ) Visibility ( mi km ) Precip ( " mm )
12:52 am 00:52 Clear 70 21.1 61 16.1 73 73 SE 3 6 30.03 1017 10 16 0.00 0.00
1:52 am 01:52 Clear 68 20 61 16.1 78 78 Calm 30.03 1017 10 16 0.00 0.00
2:52 am 02:52 Clear 69 20.6 61 16.1 75 75 Calm 30.03 1017 10 16 0.00 0.00
3:52 am 03:52 Clear 67 19.4 61 16.1 81 81 Calm 30.03 1017 10 16 0.00 0.00
4:52 am 04:52 Clear 64 17.8 60 15.6 87 87 Calm 30.04 1017 10 16 0.00 0.00
5:52 am 05:52 Clear 63 17.2 60 15.6 90 90 Calm 30.04 1017 10 16 0.00 0.00
6:52 am 06:52 Sunny 62 16.7 60 15.6 93 93 Calm 30.06 1018 9 14 0.00 0.00
7:52 am 07:52 Sunny 68 20 63 17.2 84 84 SSE 5 7 30.07 1018 10 16 0.00 0.00
8:52 am 08:52 Sunny 74 23.3 63 17.2 69 69 S 5 7 30.07 1018 10 16 0.00 0.00
9:52 am 09:52 Sunny 77 25 64 17.8 64 64 SW 5 7 30.08 1019 10 16 0.00 0.00
10:52 am 10:52 Sunny 80 26.7 62 16.7 54 54 undefined N/A 30.09 1019 10 16 0.00 0.00
11:52 am 11:52 Sunny 84 28.9 62 16.7 48 48 undefined N/A 30.08 1019 10 16 0.00 0.00
12:52 pm 12:52 Sunny 86 30 64 17.8 48 48 WNW 6 9 30.07 1018 10 16 0.00 0.00
1:52 pm 13:52 Sunny 86 30 63 17.2 46 46 undefined N/A 30.05 1018 10 16 0.00 0.00
2:52 pm 14:52 Sunny 87 30.6 62 16.7 43 43 VRB 5 7 30.03 1017 10 16 0.00 0.00
3:52 pm 15:52 Sunny 89 31.7 63 17.2 42 42 VRB 5 7 30.01 1016 10 16 0.00 0.00
4:52 pm 16:52 Mostly Sunny 88 31.1 62 16.7 42 42 Calm 30.01 1016 10 16 0.00 0.00
5:52 pm 17:52 Sunny 87 30.6 63 17.2 45 45 NNE 5 7 30.00 1016 10 16 0.00 0.00
6:52 pm 18:52 Sunny 86 30 63 17.2 46 46 ENE 5 7 29.99 1016 10 16 0.00 0.00
7:52 pm 19:52 Sunny 83 28.3 64 17.8 53 53 NNE 6 9 30.00 1016 10 16 0.00 0.00
8:52 pm 20:52 Clear 77 25 65 18.3 66 66 Calm 30.01 1016 10 16 0.00 0.00
9:52 pm 21:52 Clear 74 23.3 66 18.9 76 76 Calm 30.03 1017 10 16 0.00 0.00
10:52 pm 22:52 Clear 73 22.8 66 18.9 79 79 Calm 30.04 1017 10 16 0.00 0.00
11:52 pm 23:52 Clear 72 22.2 66 18.9 82 82 SE 3 6 30.04 1017 10 16 0.00 0.00

Powered by AerisWeather